Wind_Speed
1 1 1 1 2 2 2 2 2 1 1 1 2 2 2 2 2 2 2 2 2 3 3 3 3 3 4 3 3 3 3 3 3 3 3 2 2 2 2 2 2 2 2
2 2 1 1 2 2 2 2 2 2 2 1 1 1 2 2 1 2 2 2 2 2 2 2 2 3 3 3 3 3 3 3 3 2 2 2 2 3 3 2 3 3 3
3 3 2 2 2 2 2 2 2 3 2 2 1 0 0 1 1 1 1 2 2 2 2 2 2 3 3 3 2 2 2 3 3 3 3 3 2 3 3 3 3 4 4
5 5 4 3 3 3 2 2 2 3 2 1 1 1 1 0 1 0 0 1 2 2 2 2 2 2 3 3 3 2 2 3 3 4 4 4 3 3 3 4 4 4 4
7 7 6 5 4 3 3 3 3 3 2 2 2 2 2 2 2 1 1 1 2 2 2 2 2 2 3 3 3 3 3 4 4 5 5 5 5 5 4 4 5 5 5
9 8 7 6 6 5 4 4 4 4 3 3 3 3 3 4 3 3 3 3 3 3 3 3 3 3 3 4 4 5 5 5 5 6 6 6 6 5 5 5 6 6 6
9 10 10 9 8 7 7 6 6 5 5 4 5 5 5 5 5 4 4 3 3 3 3 3 4 4 4 4 5 5 6 6 6 6 6 6 6 6 6 6 7 7 7
11 11 10 11 10 10 9 9 8 7 7 6 6 6 6 6 6 6 5 5 5 5 5 5 5 5 5 5 6 6 6 6 7 7 7 7 7 7 7 7 7 8 8
11 11 12 12 12 11 11 10 10 9 8 8 7 8 8 8 8 8 7 7 7 7 7 6 7 7 7 7 7 7 6 6 7 7 8 8 8 8 8 8 9 10 10
12 12 13 13 14 13 13 12 12 12 10 10 10 9 9 10 10 9 9 9 9 8 9 9 9 9 9 9 9 9 8 8 8 9 9 10 10 10 10 11 11 12 12
12 13 14 14 14 14 14 14 14 13 12 12 12 12 12 12 12 11 11 11 11 10 11 11 11 11 11 12 11 11 11 11 11 12 12 12 12 13 13 14 14 14 14
12 13 14 14 14 15 15 14 14 14 14 14 14 14 13 13 13 13 13 14 14 13 13 13 13 13 14 14 14 14 14 14 14 15 15 15 15 15 16 16 17 17 18
13 14 15 14 14 15 15 14 14 14 15 15 16 15 15 15 15 15 15 15 16 16 16 15 15 15 16 16 16 16 16 17 17 18 18 19 19 19 19 20 20 21 21
13 13 15 15 15 15 15 15 15 16 16 16 17 16 17 17 16 16 16 17 17 18 18 18 17 17 18 18 19 19 19 20 20 21 21 21 21 22 22 22 23 24 24
14 13 14 15 15 16 16 17 17 18 18 18 18 18 18 18 18 18 18 19 19 20 19 20 20 20 20 20 21 22 22 22 23 23 24 24 25 25 25 25 26 27 28
13 14 14 15 15 16 17 18 18 19 19 19 19 19 20 20 20 20 20 20 20 20 21 22 22 22 22 22 23 24 24 24 25 25 25 26 27 28 28 29 29 30 31
14 14 14 14 15 16 17 18 19 20 20 20 20 21 21 21 21 21 22 22 22 22 22 23 24 24 25 24 24 25 26 27 27 28 28 29 29 29 30 31 31 32 32
14 14 14 15 15 15 16 18 19 20 21 21 22 22 23 23 23 24 24 24 23 23 23 24 25 25 26 27 27 27 28 28 29 29 29 30 30 31 31 32 33 34 34
14 14 15 15 16 16 17 18 19 20 21 22 23 23 23 24 24 24 25 26 26 25 25 26 27 28 28 28 29 29 29 29 29 29 29 30 30 31 31 32 33 34 34
14 15 15 15 15 16 17 18 19 20 21 22 22 23 24 25 25 26 26 26 26 26 26 26 27 28 28 29 28 28 28 29 29 29 30 31 32 32 33 34 35 36 36
14 15 15 15 15 15 17 17 18 19 21 21 22 24 25 25 26 26 26 26 26 27 27 27 27 28 29 29 29 29 30 31 31 32 33 33 33 34 36 36 37 38 39
14 14 14 14 15 15 16 17 17 18 20 20 21 23 23 24 25 26 26 26 26 26 27 28 28 29 29 29 29 30 32 33 33 34 35 36 37 37 37 38 39 39 41
14 14 14 14 15 17 17 18 18 19 20 20 21 21 22 23 23 24 26 26 26 27 28 28 28 29 30 30 30 31 32 34 35 36 37 38 38 39 40 41 42 43 43
15 15 15 15 16 17 17 18 19 19 20 20 19 20 21 23 23 24 24 25 26 27 28 27 27 28 29 30 31 32 34 35 36 36 37 38 39 40 42 43 44 45 45
15 15 15 16 17 17 17 17 18 18 19 19 19 20 21 22 21 22 23 24 25 25 25 26 28 29 30 32 33 34 35 37 38 39 41 41 41 42 44 44 45 47 47
15 16 16 17 17 17 18 18 19 19 20 20 21 21 21 20 20 21 22 23 23 24 25 27 29 30 32 33 33 35 37 38 39 40 41 42 43 44 45 46 47 47 48
Wind_Direction
288 274 293 327 336 336 342 351 358 7 19 13 7 19 29 37 42 62 94 115 122 129 137 135 138 142 144 138 131 127 138 149 157 164 170 176 185 191 197 210 219 222 224
245 258 261 302 331 313 312 323 337 340 338 343 4 20 26 28 52 65 85 113 130 140 142 146 147 155 159 157 158 154 151 156 165 169 176 183 198 209 220 231 236 234 238
233 237 247 281 316 319 302 311 317 318 320 321 291 290 20 41 33 56 73 107 132 145 149 149 153 161 169 172 171 177 187 190 187 191 198 204 215 226 236 241 240 241 245
235 231 235 257 281 297 288 284 297 298 295 292 273 245 259 281 353 87 100 140 157 162 164 163 172 184 191 194 199 208 215 214 216 217 221 225 232 241 246 246 243 245 246
233 228 232 244 254 268 267 262 267 273 276 271 267 252 244 256 264 260 245 223 210 208 215 215 207 214 219 220 226 232 238 237 234 231 233 236 241 248 251 251 250 251 251
232 233 236 241 242 250 252 247 255 259 263 258 257 251 248 249 255 255 253 239 228 231 237 242 239 239 240 239 242 245 251 247 240 240 242 243 245 248 251 255 257 257 255
237 237 239 243 240 241 245 244 249 250 250 249 248 248 251 256 260 262 260 249 243 247 254 255 253 252 248 247 247 251 255 251 245 245 245 245 248 252 257 262 261 260 259
240 237 238 244 241 239 239 241 248 252 249 250 248 248 253 259 264 262 260 254 255 256 258 258 256 256 252 255 255 258 258 255 252 251 247 248 251 255 258 261 263 262 263
246 246 241 242 241 238 239 243 247 250 248 248 250 251 255 258 261 262 265 261 257 260 262 264 263 260 256 256 260 261 261 257 259 257 254 255 257 259 263 265 268 269 270
245 246 246 247 244 240 241 245 248 249 249 250 252 253 254 256 258 264 266 263 258 261 264 264 266 266 263 263 262 260 261 262 261 261 259 262 262 264 266 269 272 273 273
251 248 247 251 249 244 242 245 246 247 250 253 254 255 257 257 256 259 262 262 260 262 262 263 264 267 265 264 263 262 262 263 264 264 265 265 266 266 267 269 271 273 274
256 251 251 251 248 246 247 245 246 250 252 254 255 257 258 257 256 258 259 259 261 262 264 265 267 269 269 269 266 265 265 265 265 266 266 266 268 268 269 271 272 273 274
257 252 252 251 248 247 247 246 247 250 255 255 255 257 259 260 259 259 260 260 261 262 264 265 265 268 269 267 268 267 268 267 267 267 268 268 268 269 270 271 273 274 276
257 254 250 248 248 247 246 246 249 252 256 258 258 258 259 258 259 262 264 264 263 262 262 264 265 266 268 266 266 267 269 269 268 268 269 269 269 271 271 273 274 275 275
257 255 252 248 249 250 248 250 252 253 255 258 257 258 259 258 260 263 266 267 267 264 261 263 266 268 268 268 268 269 269 269 270 271 270 270 271 272 272 274 274 274 274
256 255 255 249 250 251 251 253 252 254 256 256 257 258 259 260 261 264 266 267 267 265 263 264 266 268 270 269 270 269 268 270 271 271 272 272 272 273 274 275 276 276 276
258 260 259 256 254 250 252 255 255 255 257 258 259 260 260 260 262 264 266 268 267 267 266 265 265 267 268 269 269 269 269 271 272 271 271 273 273 274 274 276 277 277 278
261 261 259 257 254 255 257 257 257 257 258 260 261 261 262 262 262 264 267 268 270 270 267 265 266 268 268 269 271 271 272 274 273 273 274 274 274 275 276 277 277 277 277
264 262 259 259 258 258 259 259 260 261 262 262 262 262 263 264 263 264 265 268 270 271 269 267 266 269 270 271 271 271 273 274 274 274 276 276 276 278 278 279 279 279 277
262 260 259 263 263 263 263 263 265 265 266 267 265 264 264 264 263 263 265 268 270 271 271 268 268 269 271 274 275 274 274 274 275 275 276 277 279 279 279 280 280 279 278
268 263 262 262 265 266 268 268 269 270 269 268 266 267 267 267 266 265 267 268 271 272 272 270 270 270 274 276 276 275 274 274 274 276 277 278 279 280 280 279 279 278 278
269 265 266 266 267 271 274 274 275 274 274 272 270 270 269 268 269 269 269 270 272 273 273 271 270 271 273 273 275 275 274 275 276 277 278 280 280 280 280 280 280 280 280
272 268 267 269 272 273 275 274 276 280 280 278 277 273 271 270 269 270 270 272 273 272 272 272 272 273 273 273 275 276 277 277 278 279 280 280 279 279 279 280 280 280 280
274 270 270 272 274 274 275 275 277 281 282 282 281 278 275 272 274 275 276 274 273 273 273 273 274 274 274 275 277 278 279 279 280 281 281 281 281 281 282 282 282 282 281
275 272 273 273 273 274 275 278 281 281 282 283 282 282 280 280 279 277 277 278 278 277 276 275 277 278 279 279 278 279 279 281 281 281 281 281 282 282 283 284 284 283 283
276 275 275 274 274 273 274 276 279 281 281 282 284 285 285 283 282 282 281 282 282 282 282 283 282 282 283 283 283 283 284 283 283 283 283 283 284 285 284 285 284 284 284
Height
5905 5906 5906 5906 5906 5906 5905 5905 5904 5904 5904 5904 5903 5903 5902 5902 5901 5901 5901 5901 5901 5900 5900 5900 5900 5900 5900 5899 5900 5900 5900 5900 5900 5900 5900 5900 5900 5900 5899 5899 5899 5899 5899
5905 5905 5905 5906 5906 5905 5905 5905 5904 5904 5904 5904 5904 5903 5903 5902 5902 5902 5901 5901 5901 5901 5901 5900 5900 5900 5900 5900 5900 5900 5900 5900 5900 5900 5900 5900 5900 5900 5899 5899 5899 5899 5898
5904 5904 5905 5905 5905 5905 5905 5904 5904 5904 5904 5904 5903 5903 5903 5903 5902 5902 5902 5902 5901 5901 5901 5901 5900 5900 5900 5900 5900 5900 5900 5900 5900 5900 5900 5900 5900 5899 5899 5899 5899 5898 5898
5903 5903 5904 5904 5904 5904 5904 5904 5904 5904 5903 5903 5903 5903 5903 5903 5902 5902 5902 5902 5901 5901 5901 5901 5900 5900 5900 5900 5900 5900 5900 5899 5899 5899 5899 5899 5899 5899 5899 5898 5898 5898 5897
5901 5901 5902 5902 5902 5903 5903 5903 5903 5903 5903 5903 5903 5903 5903 5903 5902 5902 5902 5902 5901 5901 5901 5901 5900 5900 5900 5899 5899 5899 5899 5899 5899 5899 5899 5898 5898 5898 5898 5898 5897 5897 5896
5898 5899 5900 5900 5901 5901 5902 5902 5902 5902 5902 5902 5902 5902 5902 5902 5902 5902 5902 5901 5901 5901 5901 5900 5900 5900 5899 5899 5899 5899 5898 5898 5898 5898 5897 5897 5897 5897 5897 5896 5896 5896 5895
5896 5897 5898 5898 5899 5900 5900 5901 5901 5901 5901 5901 5901 5901 5902 5902 5902 5901 5901 5901 5901 5900 5900 5900 5899 5899 5898 5898 5898 5897 5897 5897 5896 5896 5896 5896 5896 5896 5895 5895 5894 5894 5894
5893 5893 5895 5896 5897 5897 5898 5899 5899 5899 5900 5900 5900 5900 5901 5901 5901 5901 5900 5900 5900 5900 5899 5899 5899 5898 5898 5897 5897 5896 5896 5896 5895 5895 5895 5895 5894 5894 5894 5893 5893 5892 5892
5890 5891 5892 5893 5894 5895 5895 5896 5896 5897 5897 5898 5898 5899 5899 5899 5899 5900 5899 5899 5899 5898 5898 5898 5897 5897 5896 5896 5895 5895 5895 5894 5894 5894 5893 5893 5893 5892 5892 5891 5891 5890 5890
5888 5888 5890 5890 5891 5891 5892 5893 5894 5894 5895 5896 5896 5896 5897 5897 5897 5898 5898 5897 5897 5897 5896 5896 5896 5895 5894 5894 5893 5893 5893 5892 5892 5892 5891 5891 5890 5890 5890 5889 5888 5888 5887
5884 5885 5886 5887 5887 5888 5889 5890 5890 5891 5892 5893 5893 5894 5894 5894 5895 5895 5895 5895 5895 5895 5894 5894 5893 5892 5892 5891 5891 5891 5890 5890 5889 5889 5889 5888 5888 5887 5887 5886 5885 5884 5884
5881 5881 5882 5883 5884 5884 5885 5886 5887 5888 5889 5889 5890 5890 5891 5891 5891 5892 5892 5892 5892 5892 5891 5891 5890 5889 5889 5888 5888 5888 5887 5887 5886 5886 5885 5885 5884 5884 5883 5882 5881 5880 5880
5877 5878 5878 5879 5880 5881 5881 5882 5883 5884 5885 5885 5886 5887 5887 5888 5888 5888 5888 5888 5888 5888 5888 5887 5887 5886 5886 5885 5885 5884 5884 5883 5883 5882 5881 5881 5880 5879 5878 5877 5877 5876 5875
5874 5874 5875 5875 5876 5877 5878 5879 5880 5880 5881 5881 5881 5882 5883 5883 5883 5884 5884 5884 5884 5884 5883 5883 5883 5882 5881 5881 5880 5880 5879 5879 5878 5877 5876 5876 5875 5874 5873 5872 5871 5870 5869
5870 5871 5871 5872 5872 5873 5874 5875 5875 5876 5877 5877 5877 5878 5878 5879 5879 5879 5879 5879 5880 5879 5879 5879 5878 5877 5876 5876 5875 5875 5874 5873 5873 5872 5871 5870 5869 5868 5867 5866 5865 5863 5862
5866 5867 5867 5868 5868 5869 5870 5870 5871 5872 5872 5872 5873 5873 5873 5874 5874 5874 5874 5874 5874 5874 5873 5873 5873 5872 5871 5871 5870 5869 5868 5867 5866 5865 5864 5863 5862 5861 5860 5859 5857 5856 5854
5863 5863 5863 5863 5864 5864 5865 5866 5867 5867 5867 5867 5868 5868 5868 5868 5868 5868 5868 5868 5867 5867 5867 5867 5866 5866 5865 5864 5864 5863 5862 5861 5859 5858 5857 5856 5854 5853 5852 5850 5849 5847 5846
5859 5859 5859 5859 5860 5860 5861 5861 5862 5862 5862 5862 5862 5862 5862 5862 5862 5862 5861 5861 5861 5860 5860 5860 5859 5858 5858 5857 5856 5856 5854 5853 5852 5851 5849 5848 5846 5845 5843 5842 5840 5838 5836
5855 5855 5855 5855 5855 5856 5856 5857 5857 5857 5856 5856 5856 5856 5855 5855 5855 5855 5855 5855 5854 5854 5853 5853 5852 5851 5850 5850 5849 5848 5847 5846 5844 5843 5841 5840 5838 5837 5835 5833 5831 5829 5827
5851 5851 5851 5851 5851 5851 5851 5851 5851 5851 5851 5850 5850 5849 5849 5849 5849 5849 5848 5848 5847 5847 5846 5845 5845 5844 5843 5842 5841 5840 5839 5838 5836 5835 5833 5832 5830 5828 5826 5824 5822 5820 5817
5846 5847 5847 5847 5847 5847 5847 5846 5846 5845 5845 5844 5843 5843 5842 5842 5842 5842 5841 5841 5841 5840 5839 5838 5838 5837 5836 5834 5833 5832 5831 5829 5827 5826 5825 5823 5821 5819 5816 5814 5811 5809 5807
5843 5843 5843 5843 5842 5842 5842 5841 5840 5839 5839 5838 5837 5836 5836 5835 5835 5835 5835 5834 5833 5832 5832 5831 5830 5829 5828 5826 5825 5824 5822 5821 5819 5818 5815 5813 5811 5809 5806 5803 5801 5798 5796
5839 5839 5838 5838 5838 5838 5837 5836 5835 5834 5833 5832 5831 5830 5830 5829 5828 5828 5827 5826 5826 5825 5824 5823 5822 5821 5819 5818 5817 5815 5813 5811 5809 5807 5805 5802 5800 5797 5795 5792 5789 5787 5784
5835 5835 5834 5834 5833 5833 5832 5831 5831 5830 5828 5827 5826 5825 5824 5823 5822 5821 5820 5819 5818 5818 5817 5815 5814 5813 5811 5809 5807 5806 5804 5802 5799 5797 5794 5792 5789 5786 5783 5780 5777 5774 5771
5831 5831 5830 5829 5829 5828 5828 5827 5826 5825 5824 5822 5821 5820 5819 5817 5816 5815 5814 5813 5812 5810 5809 5807 5806 5804 5802 5800 5798 5796 5794 5791 5789 5786 5783 5780 5777 5774 5770 5767 5764 5761 5757
5827 5826 5825 5824 5824 5823 5823 5822 5821 5820 5819 5818 5816 5815 5813 5812 5810 5809 5807 5806 5804 5803 5801 5799 5797 5796 5793 5791 5789 5786 5784 5781 5778 5775 5771 5768 5765 5761 5758 5754 5750 5746 5743